This is the latest recevied weather packets stored in our database for station/object W4WYD-2. If no packets are shown the sender has not sent any weather packets the latest 10 day(s).
| Time | Temp. | Humidity | Pressure | Rain* | Wind** | Luminosity | Snow |
|---|---|---|---|---|---|---|---|
| 1787759182 | 21.11° C | 96% | 1018.9 hPa | 21.59 mm | - | 5 W/m² | - |
| 1787758881 | 21.11° C | 95% | 1019 hPa | 16.76 mm | - | 4 W/m² | - |
| 1787758577 | 21.11° C | 95% | 1019.2 hPa | 11.94 mm | - | 2 W/m² | - |
| 1787758275 | 21.67° C | 94% | 1018.5 hPa | 3.05 mm | - | 3 W/m² | - |
| 1787757975 | 21.67° C | 93% | 1018.5 hPa | 1.27 mm | - | 3 W/m² | - |
| 1787757672 | 22.22° C | 93% | 1018.5 hPa | 1.27 mm | - | 2 W/m² | - |
| 1787757372 | 22.22° C | 92% | 1018.2 hPa | 1.78 mm | - | 4 W/m² | - |
| 1787757066 | 22.22° C | 92% | 1018 hPa | 0 mm | - | 6 W/m² | - |
| 1787756761 | 22.78° C | 95% | 1017.3 hPa | 0 mm | - | 4 W/m² | - |
| 1787756456 | 22.78° C | 95% | 1017 hPa | 0 mm | - | 9 W/m² | - |
| 1787756155 | 22.78° C | 94% | 1016.8 hPa | 0 mm | - | 10 W/m² | - |
| 1787755850 | 22.78° C | 94% | 1016.6 hPa | 0 mm | - | 12 W/m² | - |
| 1787755549 | 22.78° C | 94% | 1016.3 hPa | 0 mm | - | 17 W/m² | - |
| 1787755244 | 22.78° C | 93% | 1016.3 hPa | 0 mm | - | 20 W/m² | - |
| 1787754944 | 23.33° C | 94% | 1016 hPa | 0 mm | - | 26 W/m² | - |
| 1787754639 | 23.33° C | 93% | 1016 hPa | 0 mm | - | 33 W/m² | - |
| 1787754337 | 22.78° C | 93% | 1016.1 hPa | 0 mm | - | 44 W/m² | - |
| 1787754032 | 22.78° C | 94% | 1016 hPa | 0 mm | - | 57 W/m² | - |
| 1787753731 | 22.78° C | 95% | 1015.7 hPa | 0 mm | - | 71 W/m² | - |
| 1787753430 | 22.78° C | 96% | 1015.9 hPa | 0 mm | - | 81 W/m² | - |
| 1787753128 | 22.78° C | 96% | 1016.1 hPa | 0 mm | - | 89 W/m² | - |
| 1787752824 | 22.78° C | 96% | 1016.3 hPa | 0 mm | - | 88 W/m² | - |
| 1787752523 | 22.22° C | 96% | 1016.5 hPa | 0 mm | - | 80 W/m² | - |
| 1787752219 | 22.22° C | 96% | 1016.5 hPa | 0 mm | - | 70 W/m² | - |
| 1787751916 | 22.22° C | 96% | 1016.8 hPa | 0 mm | - | 60 W/m² | - |
* Rain latest hour (hover to see other rain measurements)
** Current wind speed in m/s (hover to see current wind gust speed)